星链-37429(STARLINK-37429)

导读

STARLINK-37429(NORAD编号69523)是美国太空探索技术公司(SpaceX)星链互联网星座的组成卫星,属于第二代V2 Mini批次,2025年下半年由猎鹰9号火箭发射入轨,运行于高度约550公里、倾角约53度的低地球轨道,轨道周期约94分钟。该卫星搭载激光星间链路与相控阵通信天线,可提供低延迟高速网络接入服务,截至2026年6月处于在轨运营状态,是星链全球组网覆盖、支撑偏远地区通信及应急网络服务的节点之一。

基本信息
目录编号:
69523
目录名称:
STARLINK-37429
国际标识:
2026-133R
轨道中心:
EARTH
卫星名称:
星链-37429
卫星全名:
星链-37429(STARLINK-37429)
卫星状态:
在轨 (已飞行84 天)
发射日期:
2026-06-12 UTC
国别 :
美国 (US)
星等 :
--
轨道信息
数据来源 国际轨道数据
星历时间: 2026-09-04T11:13:42+0800
6小时前
查看轨道信息
半长轴: 6840.845km
偏心率: 0.0001518
轨道倾角: 53.157°
近地点辐角 92.432°
升交点赤经 306.078°
平近点角 267.686°
近地点: 461.669km
远地点: 463.747km
周期: 93.848分钟
每日圈数: 15.343986
详细信息
固有亮度:
5
最大亮度:
2.5
卫星平台:
Starlink V1.0
覆盖范围:
全球
运营商:
太空探索技术公司
运营商所在国:
美国
制造商(研发单位):
太空探索技术公司
制造商所在国:
美国
使用方式:
暂无
卫星简介
Starlink 计划是 SpaceX 推出的全球卫星互联网项目,通过发射低轨道卫星,为全球尤其是偏远地区提供高速、低延迟的互联网服务。自 2019 年起,Starlink 已部署数千颗卫星,旨在缩小全球数字鸿沟,推动互联网普及。该项目还为军事、航空等行业提供通信支持,带来广泛经济效益。
2D轨道图
3D轨道图
轨道高度分析图
轨道倾角分析图
轨道综合分析图
查看轨道综合分析图
交会数据列表
事件ID 空间交会对象 最接近时刻(TCA) 交会距离 交会风险概率(CRP) 交会风险指数(CRI) 操作
CDM_260904-073806-350306-952321
2026-09-04T
07:38:21+0000
0.670 km
远距离
6.312968E-5 中风险 0.71
CDM_260904-192106-350306-952321
2026-09-04T
19:21:46+0000
0.984 km
远距离
1.816379E-5 中风险 0.6
CDM_260905-122006-832106-952321
2026-09-05T
12:20:58+0000
1.360 km
极远距离
5.486213E-6 低风险 0.5
CDM_260904-205506-350306-952321
2026-09-04T
20:55:34+0000
1.732 km
极远距离
2.797202E-6 低风险 0.44
CDM_260904-091206-350306-952321
2026-09-04T
09:12:08+0000
1.851 km
极远距离
2.323203E-6 低风险 0.42
CDM_260904-060406-350306-952321
2026-09-04T
06:04:34+0000
2.820 km
极远距离
9.998969E-7 极低风险 0.35
CDM_260905-104706-832106-952321
2026-09-05T
10:47:10+0000
2.898 km
极远距离
9.031132E-7 极低风险 0.34
CDM_260905-052305-199406-952321
2026-09-05T
05:23:24+0000
2.917 km
极远距离
4.500411E-7 极低风险 0.28